| time (UTC) | temp F | wind direction | speed knots | gust knots | rain 1hr in | rain 24hr in | rain mn in | humidity % | barometer mb |
| 20260504001530 | 54 | 154 | 0.0 | 0.9 | 0.00 | 0.00 | 0.00 | 54 | 1013.3 |
| 20260504000019 | 56 | 154 | 0.0 | 3.5 | 0.00 | 0.00 | 0.00 | 52 | 1013.4 |
| 20260503234519 | 57 | 154 | 0.0 | 1.7 | 0.00 | 0.00 | 0.00 | 51 | 1013.5 |
| 20260503233017 | 57 | 154 | 0.0 | 1.7 | 0.00 | 0.00 | 0.00 | 50 | 1013.5 |
| 20260503231516 | 57 | 154 | 0.9 | 2.6 | 0.00 | 0.00 | 0.00 | 49 | 1013.4 |
| 20260503230016 | 58 | 154 | 0.0 | 5.2 | 0.00 | 0.00 | 0.00 | 48 | 1013.6 |
| 20260503224515 | 58 | 154 | 0.0 | 4.3 | 0.00 | 0.00 | 0.00 | 49 | 1013.7 |
| 20260503223115 | 58 | 153 | 1.7 | 4.3 | 0.00 | 0.00 | 0.00 | 46 | 1014.0 |
| 20260503221515 | 58 | 153 | 0.9 | 6.1 | 0.00 | 0.00 | 0.00 | 47 | 1013.9 |
| 20260503220026 | 59 | 154 | 0.9 | 5.2 | 0.00 | 0.00 | 0.00 | 47 | 1013.9 |
| 20260503214525 | 59 | 154 | 0.9 | 7.8 | 0.00 | 0.00 | 0.00 | 47 | 1013.9 |
| 20260503213023 | 60 | 154 | 0.0 | 3.5 | 0.00 | 0.00 | 0.00 | 46 | 1013.6 |
| 20260503211513 | 60 | 154 | 1.7 | 5.2 | 0.00 | 0.00 | 0.00 | 44 | 1013.7 |
| 20260503210014 | 63 | 154 | 2.6 | 6.1 | 0.00 | 0.00 | 0.00 | 41 | 1014.0 |
| 20260503204509 | 62 | 154 | 0.0 | 3.5 | 0.00 | 0.00 | 0.00 | 44 | 1014.0 |
| 20260503203008 | 61 | 154 | 0.9 | 3.5 | 0.00 | 0.00 | 0.00 | 46 | 1014.2 |
| 20260503201504 | 61 | 153 | 1.7 | 5.2 | 0.00 | 0.00 | 0.00 | 43 | 1014.2 |
| 20260503200001 | 61 | 153 | 1.7 | 5.2 | 0.00 | 0.00 | 0.00 | 45 | 1014.6 |
| 20260503194624 | 62 | 154 | 0.9 | 4.3 | 0.00 | 0.00 | 0.00 | 47 | 1014.8 |
| 20260503193058 | 62 | 154 | 1.7 | 6.1 | 0.00 | 0.00 | 0.00 | 39 | 1015.0 |
| 20260503191606 | 62 | 154 | 0.9 | 3.5 | 0.00 | 0.00 | 0.00 | 44 | 1015.2 |
| 20260503190058 | 62 | 155 | 1.7 | 8.7 | 0.00 | 0.00 | 0.00 | 43 | 1015.2 |
| 20260503184553 | 61 | 154 | 2.6 | 6.1 | 0.00 | 0.00 | 0.00 | 44 | 1015.6 |
| 20260503183057 | 61 | 154 | 1.7 | 7.8 | 0.00 | 0.00 | 0.00 | 45 | 1015.8 |
| 20260503181602 | 62 | 154 | 0.9 | 4.3 | 0.00 | 0.00 | 0.00 | 46 | 1016.0 |
| 20260503180051 | 61 | 154 | 0.9 | 6.1 | 0.00 | 0.00 | 0.00 | 47 | 1016.1 |
| 20260503174553 | 62 | 154 | 1.7 | 3.5 | 0.00 | 0.00 | 0.00 | 47 | 1016.3 |
| 20260503173044 | 61 | 154 | 1.7 | 6.1 | 0.00 | 0.00 | 0.00 | 46 | 1016.4 |
| 20260503171540 | 61 | 154 | 1.7 | 7.0 | 0.00 | 0.00 | 0.00 | 48 | 1016.5 |
| 20260503081510 | 30 | 154 | 0.0 | 0.0 | 0.00 | 0.02 | 0.00 | 91 | 1017.7 |
| 20260503071501 | 30 | 155 | 0.0 | 0.0 | 0.00 | 0.02 | 0.00 | 90 | 1017.8 |
| 20260503054546 | 33 | 154 | 0.0 | 0.0 | 0.00 | 0.15 | 0.00 | 86 | 1018.0 |
| 20260503053043 | 34 | 154 | 0.0 | 0.0 | 0.00 | 0.15 | 0.00 | 85 | 1018.1 |
| 20260503051539 | 35 | 154 | 0.0 | 0.0 | 0.00 | 0.15 | 0.00 | 83 | 1018.0 |
| 20260503050035 | 36 | 154 | 0.0 | 0.0 | 0.00 | 0.16 | 0.00 | 82 | 1018.0 |
| 20260503044538 | 37 | 155 | 0.0 | 0.0 | 0.00 | 0.16 | 0.00 | 83 | 1018.2 |
| 20260503043031 | 37 | 154 | 0.0 | 0.0 | 0.00 | 0.16 | 0.00 | 84 | 1018.1 |
| 20260503041530 | 37 | 155 | 0.0 | 0.0 | 0.00 | 0.16 | 0.00 | 84 | 1018.2 |
| 20260503040031 | 37 | 155 | 0.0 | 0.0 | 0.00 | 0.16 | 0.16 | 84 | 1018.4 |
| 20260503034527 | 37 | 155 | 0.0 | 0.0 | 0.00 | 0.16 | 0.16 | 85 | 1018.4 |
| 20260503033026 | 37 | 155 | 0.0 | 0.0 | 0.00 | 0.16 | 0.16 | 85 | 1018.4 |
| 20260503031526 | 37 | 155 | 0.0 | 0.0 | 0.00 | 0.16 | 0.16 | 85 | 1018.5 |
| 20260503030030 | 37 | 154 | 0.0 | 0.0 | 0.00 | 0.16 | 0.16 | 85 | 1018.5 |
| 20260503024525 | 37 | 155 | 0.0 | 0.0 | 0.00 | 0.16 | 0.16 | 84 | 1018.5 |
| 20260503023026 | 37 | 154 | 0.0 | 0.0 | 0.00 | 0.16 | 0.16 | 83 | 1018.7 |
| 20260503021524 | 37 | 154 | 0.0 | 0.0 | 0.00 | 0.16 | 0.16 | 82 | 1018.7 |
| 20260503020023 | 37 | 154 | 0.0 | 0.0 | 0.00 | 0.16 | 0.16 | 81 | 1018.6 |
| 20260503014523 | 37 | 155 | 0.0 | 0.0 | 0.00 | 0.16 | 0.16 | 80 | 1018.7 |
| 20260503013022 | 37 | 155 | 0.0 | 0.0 | 0.00 | 0.16 | 0.16 | 78 | 1018.6 |
| 20260503011529 | 38 | 154 | 0.0 | 0.0 | 0.00 | 0.16 | 0.16 | 77 | 1018.6 |
| 20260503010019 | 38 | 155 | 0.0 | 0.0 | 0.00 | 0.16 | 0.16 | 75 | 1018.5 |
| 20260503004520 | 39 | 154 | 0.0 | 0.0 | 0.00 | 0.16 | 0.16 | 72 | 1018.4 |
| 20260503003017 | 40 | 155 | 0.0 | 0.0 | 0.00 | 0.16 | 0.16 | 70 | 1018.4 |